Wind_Speed
30 29 30 25 23 24 21 21 17 28 23 21 19 18 16 14 13 13 12 11 12 8
36 34 31 30 31 23 24 21 19 21 22 23 22 20 19 18 17 14 15 14 14 13
38 37 35 31 29 30 25 25 17 24 22 23 24 23 22 20 18 17 17 16 17 16
40 38 36 36 33 33 30 26 30 23 26 25 26 26 25 24 19 22 20 18 17 18
39 39 39 38 37 34 34 32 29 29 27 27 28 28 27 27 25 23 23 22 21 21
41 40 41 39 38 39 36 35 34 32 31 31 31 31 30 29 28 25 26 25 25 24
41 43 41 39 39 38 38 37 36 35 35 35 35 34 34 34 32 30 30 29 28 27
40 38 37 38 39 39 38 39 38 37 38 37 38 38 37 37 34 34 33 31 31 29
37 36 37 36 37 38 39 39 39 40 40 40 40 40 42 39 35 34 32 32 31 31
36 37 36 35 35 39 40 37 40 39 38 40 42 43 44 45 39 35 35 34 34 32
37 36 34 35 37 36 34 37 37 37 38 39 42 44 46 47 48 40 37 37 37 35
34 34 35 38 38 36 35 35 37 37 37 41 41 42 47 48 45 44 42 39 36 37
32 34 36 36 35 34 35 36 33 36 39 41 42 44 47 50 44 41 41 41 38 41
33 34 35 33 33 34 34 32 34 35 37 41 44 45 51 53 49 46 42 40 40 43
Wind_Direction
209 209 214 214 213 214 216 218 219 195 204 213 210 210 209 214 215 213 214 218 223 234
209 211 213 216 217 215 217 222 206 197 202 212 214 210 212 217 207 215 209 214 219 224
208 210 213 215 216 216 220 219 217 202 208 211 213 213 212 215 217 208 211 216 210 217
208 210 212 215 215 216 216 216 220 205 203 208 210 212 212 219 219 205 212 217 215 213
206 208 211 215 216 216 217 214 213 212 206 207 211 213 213 215 220 210 212 217 217 217
209 209 211 211 212 214 215 216 216 213 212 208 211 212 214 216 219 221 215 216 216 216
212 213 212 210 211 212 213 214 215 215 214 213 213 213 215 216 218 220 221 217 218 217
214 216 214 212 211 210 211 213 214 214 216 216 216 217 217 218 218 219 221 220 217 221
212 212 215 214 211 211 211 212 213 214 214 215 219 223 224 219 221 223 223 223 220 219
210 210 211 213 212 213 213 211 214 216 216 219 220 222 224 223 220 223 224 223 222 218
212 209 206 209 215 216 215 215 216 218 219 221 224 224 224 223 222 224 227 226 224 221
211 210 206 208 212 214 213 216 217 218 220 222 226 225 226 225 220 223 226 228 227 226
211 210 211 212 210 211 214 217 218 221 222 224 227 224 224 222 220 223 226 226 227 224
210 210 213 213 211 211 214 218 218 223 224 225 226 226 225 223 215 220 219 222 222 221
Height
793 797 801 803 804 808 808 811 814 818 823 827 830 833 835 838 839 840 842 844 845 845
785 789 792 796 799 802 804 805 809 813 818 822 825 828 831 833 834 836 839 841 843 844
775 780 785 789 793 796 799 802 804 807 812 816 820 823 826 828 830 832 835 837 839 841
765 771 777 781 785 789 792 795 799 802 805 809 813 816 820 822 824 826 829 832 834 835
756 762 767 771 776 781 785 789 792 796 799 803 807 810 813 816 817 820 823 826 828 830
746 750 754 760 766 771 776 781 785 788 792 795 799 802 805 808 811 813 815 818 820 822
735 738 744 750 756 762 767 771 775 779 783 786 789 793 796 798 801 804 806 809 812 814
725 732 738 742 746 752 756 761 765 770 774 777 781 783 786 789 792 795 797 800 803 807
717 723 729 735 739 743 746 750 754 757 761 766 770 774 778 782 786 789 792 794 797 799
707 712 719 726 730 731 734 741 743 748 753 757 759 762 767 773 778 780 782 785 787 789
695 702 710 715 719 724 730 733 736 740 744 747 747 752 756 762 767 770 772 774 776 780
689 695 699 701 706 713 719 723 724 729 733 734 736 740 745 750 753 756 758 762 768 771
681 686 689 693 698 704 709 711 716 719 720 722 724 725 728 735 742 744 747 749 754 756
671 676 681 687 691 695 700 705 706 708 710 710 712 713 713 717 723 724 727 731 736 736